When you browse on this site, cookies collect data to enhance your experience and personalize the content and advertising you see.
Visit our Privacy Policy to learn more. By continuing to use the site, you agree to this use of cookies and data.
  • In Schweiz
  • Länderverzeichnis
  • Für 7 Tage
  • Wassertemperatur
  • Wetterkarte
  • Widgets
  • user-avatar
    Anmelden

    Stündliche Wetter Seshkino

    Heute, 18 August, Sonntag

    Zeit Temperatur Niederschläge Wind Luftdruck Luftfeuchtigkeit
    00:00 +12°C° 0 mm 1 m/S 756 mmHg 82%
    01:00 +12°C° 0 mm 1 m/S 756 mmHg 83%
    02:00 +10°C° 0 mm 0 m/S 755 mmHg 84%
    03:00 +11°C° 0 mm 1 m/S 755 mmHg 85%
    04:00 +11°C° 0 mm 1 m/S 755 mmHg 86%
    05:00 +11°C° 0 mm 1 m/S 755 mmHg 86%
    06:00 +13°C° 0 mm 1 m/S 755 mmHg 80%
    07:00 +15°C° 0 mm 1 m/S 755 mmHg 74%
    08:00 +18°C° 0 mm 1 m/S 755 mmHg 67%
    09:00 +20°C° 0 mm 1 m/S 754 mmHg 63%
    10:00 +21°C° 0 mm 1 m/S 754 mmHg 59%
    11:00 +23°C° 0 mm 1 m/S 754 mmHg 55%
    12:00 +24°C° 0 mm 1 m/S 754 mmHg 53%
    13:00 +24°C° 0 mm 1 m/S 754 mmHg 51%
    14:00 +25°C° 0 mm 1 m/S 753 mmHg 48%
    15:00 +25°C° 0 mm 1 m/S 753 mmHg 50%
    16:00 +22°C° 0 mm 0 m/S 753 mmHg 52%
    17:00 +22°C° 0 mm 0 m/S 753 mmHg 54%
    18:00 +22°C° 0 mm 1 m/S 753 mmHg 61%
    19:00 +19°C° 0 mm 1 m/S 753 mmHg 68%
    20:00 +16°C° 0 mm 1 m/S 753 mmHg 75%
    21:00 +16°C° 0 mm 1 m/S 753 mmHg 77%
    22:00 +15°C° 0 mm 1 m/S 754 mmHg 79%
    23:00 +15°C° 0 mm 2 m/S 754 mmHg 82%

    Morgen, 19 August, Montag

    Zeit Temperatur Niederschläge Wind Luftdruck Luftfeuchtigkeit
    00:00 +15°C° 0 mm 2 m/S 753 mmHg 84%
    01:00 +14°C° 0 mm 2 m/S 753 mmHg 86%
    02:00 +14°C° 0 mm 2 m/S 753 mmHg 88%
    03:00 +14°C° 0 mm 2 m/S 753 mmHg 86%
    04:00 +13°C° 0 mm 3 m/S 753 mmHg 84%
    05:00 +13°C° 0 mm 3 m/S 752 mmHg 83%
    06:00 +16°C° 0 mm 3 m/S 752 mmHg 80%
    07:00 +17°C° 0 mm 3 m/S 752 mmHg 78%
    08:00 +19°C° 0 mm 4 m/S 752 mmHg 76%
    09:00 +19°C° 0 mm 4 m/S 752 mmHg 76%
    10:00 +20°C° 0 mm 4 m/S 753 mmHg 75%
    11:00 +21°C° 0 mm 4 m/S 753 mmHg 75%
    12:00 +21°C° 0 mm 3 m/S 753 mmHg 77%
    13:00 +21°C° 0 mm 3 m/S 753 mmHg 79%
    14:00 +21°C° 0 mm 2 m/S 753 mmHg 81%
    15:00 +23°C° 0.2 mm 2 m/S 753 mmHg 81%
    16:00 +23°C° 0.2 mm 2 m/S 753 mmHg 81%
    17:00 +24°C° 0.2 mm 2 m/S 753 mmHg 81%
    18:00 +23°C° 0.3 mm 2 m/S 754 mmHg 86%
    19:00 +20°C° 0.3 mm 2 m/S 754 mmHg 91%
    20:00 +19°C° 0.3 mm 2 m/S 755 mmHg 95%
    21:00 +18°C° 0 mm 2 m/S 755 mmHg 95%
    22:00 +17°C° 0 mm 2 m/S 755 mmHg 95%
    23:00 +17°C° 0 mm 2 m/S 756 mmHg 95%

    übermorgen, 20 August, Dienstag

    Zeit Temperatur Niederschläge Wind Luftdruck Luftfeuchtigkeit
    00:00 +16°C° 0 mm 1 m/S 756 mmHg 94%
    01:00 +15°C° 0 mm 1 m/S 757 mmHg 93%
    02:00 +14°C° 0 mm 1 m/S 757 mmHg 92%
    03:00 +14°C° 0 mm 1 m/S 757 mmHg 91%
    04:00 +13°C° 0 mm 0 m/S 758 mmHg 91%
    05:00 +13°C° 0 mm 0 m/S 758 mmHg 91%
    06:00 +15°C° 0 mm 1 m/S 758 mmHg 88%
    07:00 +18°C° 0 mm 1 m/S 759 mmHg 85%
    08:00 +19°C° 0 mm 1 m/S 759 mmHg 82%
    09:00 +21°C° 0.1 mm 1 m/S 759 mmHg 76%
    10:00 +21°C° 0.1 mm 2 m/S 759 mmHg 69%
    11:00 +24°C° 0.1 mm 2 m/S 759 mmHg 63%
    12:00 +24°C° 0.3 mm 2 m/S 759 mmHg 63%
    13:00 +24°C° 0.3 mm 2 m/S 759 mmHg 64%
    14:00 +24°C° 0.3 mm 2 m/S 759 mmHg 64%
    15:00 +24°C° 0.1 mm 2 m/S 759 mmHg 65%
    16:00 +24°C° 0.1 mm 1 m/S 759 mmHg 65%
    17:00 +24°C° 0.1 mm 1 m/S 759 mmHg 66%
    18:00 +22°C° 0 mm 1 m/S 759 mmHg 70%
    19:00 +20°C° 0 mm 1 m/S 760 mmHg 74%
    20:00 +18°C° 0 mm 1 m/S 760 mmHg 78%
    21:00 +18°C° 0 mm 1 m/S 760 mmHg 78%
    22:00 +16°C° 0 mm 1 m/S 761 mmHg 78%
    23:00 +15°C° 0 mm 1 m/S 761 mmHg 79%

    21 August, Mittwoch

    Zeit Temperatur Niederschläge Wind Luftdruck Luftfeuchtigkeit
    00:00 +14°C° 0 mm 0 m/S 761 mmHg 79%
    01:00 +14°C° 0 mm 0 m/S 761 mmHg 80%
    02:00 +13°C° 0 mm 0 m/S 761 mmHg 80%
    03:00 +14°C° 0 mm 1 m/S 761 mmHg 81%
    04:00 +14°C° 0 mm 1 m/S 761 mmHg 81%
    05:00 +14°C° 0 mm 1 m/S 761 mmHg 81%
    06:00 +15°C° 0 mm 1 m/S 761 mmHg 79%
    07:00 +18°C° 0 mm 1 m/S 761 mmHg 77%
    08:00 +19°C° 0 mm 1 m/S 761 mmHg 75%
    09:00 +20°C° 0.1 mm 1 m/S 761 mmHg 73%
    10:00 +22°C° 0.1 mm 1 m/S 761 mmHg 70%
    11:00 +23°C° 0.1 mm 1 m/S 761 mmHg 67%
    12:00 +22°C° 0.7 mm 1 m/S 761 mmHg 72%
    13:00 +22°C° 0.7 mm 1 m/S 761 mmHg 78%
    14:00 +21°C° 0.7 mm 1 m/S 761 mmHg 84%
    15:00 +20°C° 0.4 mm 1 m/S 761 mmHg 86%
    16:00 +19°C° 0.4 mm 1 m/S 760 mmHg 88%
    17:00 +18°C° 0.4 mm 1 m/S 760 mmHg 91%
    18:00 +18°C° 0.4 mm 1 m/S 760 mmHg 92%
    19:00 +16°C° 0.4 mm 1 m/S 760 mmHg 94%
    20:00 +15°C° 0.4 mm 1 m/S 760 mmHg 95%
    21:00 +15°C° 0 mm 1 m/S 760 mmHg 95%
    22:00 +15°C° 0 mm 1 m/S 760 mmHg 95%
    23:00 +15°C° 0 mm 2 m/S 760 mmHg 95%

    22 August, Donnerstag

    Zeit Temperatur Niederschläge Wind Luftdruck Luftfeuchtigkeit
    00:00 +14°C° 0 mm 2 m/S 760 mmHg 95%
    01:00 +14°C° 0 mm 2 m/S 761 mmHg 95%
    02:00 +13°C° 0 mm 2 m/S 761 mmHg 95%
    03:00 +12°C° 0 mm 2 m/S 761 mmHg 95%
    04:00 +12°C° 0 mm 2 m/S 761 mmHg 96%
    05:00 +10°C° 0 mm 2 m/S 761 mmHg 97%
    06:00 +13°C° 0 mm 2 m/S 761 mmHg 94%
    07:00 +14°C° 0 mm 2 m/S 761 mmHg 91%
    08:00 +15°C° 0 mm 2 m/S 762 mmHg 88%
    09:00 +17°C° 0 mm 2 m/S 762 mmHg 79%
    10:00 +18°C° 0 mm 2 m/S 762 mmHg 69%
    11:00 +19°C° 0 mm 3 m/S 762 mmHg 60%
    12:00 +20°C° 0 mm 3 m/S 762 mmHg 57%
    13:00 +21°C° 0 mm 3 m/S 762 mmHg 54%
    14:00 +21°C° 0 mm 3 m/S 762 mmHg 51%
    15:00 +21°C° 0 mm 2 m/S 762 mmHg 56%
    16:00 +20°C° 0 mm 2 m/S 762 mmHg 60%
    17:00 +20°C° 0 mm 2 m/S 762 mmHg 65%
    18:00 +18°C° 0 mm 2 m/S 762 mmHg 71%
    19:00 +16°C° 0 mm 1 m/S 762 mmHg 77%
    20:00 +15°C° 0 mm 1 m/S 762 mmHg 83%
    21:00 +14°C° 0 mm 1 m/S 762 mmHg 85%
    22:00 +13°C° 0 mm 1 m/S 762 mmHg 87%
    23:00 +12°C° 0 mm 1 m/S 762 mmHg 88%

    23 August, Freitag

    Zeit Temperatur Niederschläge Wind Luftdruck Luftfeuchtigkeit
    00:00 +12°C° 0 mm 1 m/S 762 mmHg 89%
    01:00 +12°C° 0 mm 1 m/S 762 mmHg 89%
    02:00 +11°C° 0 mm 1 m/S 762 mmHg 89%
    03:00 +11°C° 0 mm 1 m/S 762 mmHg 90%
    04:00 +10°C° 0 mm 1 m/S 762 mmHg 92%
    05:00 +10°C° 0 mm 1 m/S 762 mmHg 93%
    06:00 +12°C° 0 mm 1 m/S 762 mmHg 88%
    07:00 +14°C° 0 mm 1 m/S 762 mmHg 83%
    08:00 +15°C° 0 mm 1 m/S 762 mmHg 77%
    09:00 +16°C° 0 mm 2 m/S 762 mmHg 72%
    10:00 +18°C° 0 mm 2 m/S 762 mmHg 66%
    11:00 +19°C° 0 mm 2 m/S 762 mmHg 61%
    12:00 +18°C° 0.1 mm 3 m/S 762 mmHg 65%
    13:00 +17°C° 0.1 mm 3 m/S 761 mmHg 69%
    14:00 +15°C° 0.1 mm 4 m/S 761 mmHg 73%
    15:00 +16°C° 0 mm 3 m/S 761 mmHg 76%
    16:00 +16°C° 0 mm 3 m/S 761 mmHg 79%
    17:00 +16°C° 0 mm 2 m/S 761 mmHg 82%
    18:00 +15°C° 0.1 mm 2 m/S 761 mmHg 87%
    19:00 +14°C° 0.1 mm 2 m/S 761 mmHg 91%
    20:00 +13°C° 0.1 mm 2 m/S 761 mmHg 95%
    21:00 +13°C° 0 mm 2 m/S 761 mmHg 96%
    22:00 +13°C° 0 mm 2 m/S 761 mmHg 96%
    23:00 +12°C° 0 mm 2 m/S 762 mmHg 97%
    Mehr zeigen